Wind_Speed
104 106 107 113 115 110 110 110 108 108 122 120 111 102 104 104 101 94 95 95 92 87 76 80 80 75 71 69 69 64 61 65 66 69 70 72 73 69 66 64 62 64 67 70
105 104 112 116 116 114 115 112 107 111 113 117 115 105 109 112 107 102 96 94 87 83 81 71 69 68 65 70 69 65 65 64 68 67 70 73 73 68 65 61 61 64 67 67
108 108 116 117 118 117 117 115 114 114 116 113 112 105 106 106 109 104 101 96 91 85 82 82 80 73 73 73 70 70 71 67 65 70 71 72 67 64 57 57 61 65 65 62
108 114 117 119 118 117 114 114 118 118 118 109 112 103 107 105 102 105 99 100 97 92 91 84 85 81 74 73 76 73 72 70 72 71 66 64 61 53 54 58 64 64 60 56
94 101 108 112 116 119 118 117 115 117 114 114 112 104 98 99 95 97 101 103 99 96 97 93 87 80 77 76 77 76 72 71 66 59 58 55 48 53 57 60 62 60 54 51
80 86 91 99 105 106 109 114 120 115 112 112 97 106 98 97 93 96 97 98 95 94 95 91 87 83 77 76 70 63 63 61 57 53 50 46 48 55 57 57 57 52 49 48
68 74 78 85 92 97 97 102 111 112 112 100 93 105 91 97 95 93 93 94 91 89 83 86 85 78 73 69 61 58 60 55 49 48 46 48 49 56 53 55 50 47 47 41
54 58 63 68 72 80 88 95 96 99 99 96 104 98 84 95 99 95 93 89 87 81 80 77 77 75 68 63 58 58 54 47 45 44 47 50 53 53 51 49 46 47 40 37
47 51 54 62 66 68 75 80 88 90 90 98 99 92 91 85 92 96 93 87 84 80 78 71 69 63 60 58 59 50 46 46 44 48 47 50 53 48 47 42 44 38 34 38
38 42 44 50 56 60 65 71 75 81 85 84 90 84 84 85 89 92 93 87 80 75 70 67 62 57 57 52 47 45 46 44 46 49 49 49 46 46 39 41 37 33 37 36
31 33 36 41 43 49 56 61 67 75 75 79 84 80 88 85 87 87 87 84 79 73 67 63 56 55 50 48 48 46 45 47 51 49 48 46 44 39 39 37 32 33 37 35
26 28 28 30 35 40 45 52 61 68 69 74 78 89 88 87 82 79 81 81 75 67 62 58 57 53 52 53 50 46 49 50 49 45 46 41 39 33 37 31 31 36 32 34
18 21 21 24 30 36 41 49 57 62 63 66 74 77 78 80 82 79 75 75 73 65 60 57 55 54 57 53 49 49 51 47 43 45 41 38 30 33 30 29 33 31 31 35
13 17 17 21 25 29 34 42 50 55 57 64 72 78 85 87 81 78 68 70 70 66 62 58 56 59 54 51 51 50 47 43 44 40 38 28 31 27 25 28 30 29 32 32
13 10 12 18 21 26 32 38 41 48 54 64 72 79 81 78 74 72 69 68 68 64 60 58 57 56 51 52 50 48 45 42 39 36 31 26 28 25 23 26 29 30 31 27
14 10 9 13 19 22 27 31 36 45 54 63 71 73 74 75 75 76 70 64 64 63 60 57 55 52 52 48 45 43 40 38 35 32 25 24 22 22 23 28 32 31 30 24
12 9 7 12 17 21 26 32 38 45 51 59 65 74 74 76 74 73 66 60 59 61 59 56 53 52 49 44 42 41 37 35 33 26 24 21 20 20 26 29 31 31 24 17
13 8 5 8 12 16 20 30 40 48 51 58 64 67 69 73 72 72 64 60 60 62 59 55 52 50 44 44 42 39 35 35 31 26 26 24 26 26 26 30 30 27 20 16
13 9 4 3 6 12 20 27 37 48 56 57 62 65 69 72 71 69 65 61 62 62 59 56 52 48 47 43 41 38 33 35 31 28 27 27 26 21 24 30 29 23 18 14
13 7 3 0 3 9 16 30 40 48 55 60 61 65 67 68 69 69 62 61 61 61 59 57 52 48 45 45 40 38 34 33 30 30 29 19 18 20 24 27 27 20 16 13
16 11 5 2 4 9 16 30 44 51 58 61 65 68 67 69 70 61 67 60 57 56 55 52 52 50 47 43 40 37 34 30 29 29 23 17 18 22 26 27 25 18 17 16
16 12 7 5 3 6 14 28 44 55 59 62 67 69 69 71 69 67 63 60 55 52 53 53 52 51 48 43 40 37 34 29 28 27 24 22 23 23 25 26 23 17 15 13
16 9 9 4 5 9 14 25 43 54 60 61 67 70 71 71 65 64 62 59 54 53 53 53 51 49 45 42 40 36 32 28 27 22 27 23 21 20 22 25 20 14 14 10
14 9 7 4 3 9 16 24 40 53 61 63 66 69 71 72 67 65 61 57 56 54 54 53 50 49 46 42 39 36 30 26 24 20 23 23 18 20 23 23 14 13 10 9
12 10 7 4 4 9 14 21 34 50 59 62 67 67 70 69 69 67 62 60 58 56 54 54 49 46 45 41 39 34 27 28 22 20 22 21 18 21 23 18 11 10 9 7
10 9 7 4 7 10 15 21 29 43 55 59 66 67 68 68 70 68 64 62 60 58 57 52 48 46 42 41 36 32 27 25 22 18 17 18 18 19 19 12 10 8 7 7
Wind_Direction
247 247 246 247 245 242 241 239 238 236 235 238 240 236 238 241 244 241 244 246 251 252 251 253 256 257 262 266 270 272 277 283 284 291 295 301 302 305 304 306 305 305 310 312
249 248 248 247 246 245 244 242 240 239 238 238 239 239 237 240 241 243 245 247 247 246 246 248 253 252 256 264 268 273 280 283 286 289 294 299 301 300 302 302 305 310 311 310
252 250 249 249 247 245 245 244 241 240 240 240 240 238 237 240 242 245 244 244 246 245 247 250 253 256 262 267 266 273 277 283 285 288 295 297 297 299 300 302 308 311 310 310
256 253 252 251 251 250 248 246 244 243 241 240 240 238 237 238 240 242 245 246 246 246 250 252 254 257 263 268 269 273 280 281 286 291 291 292 296 298 299 306 309 309 310 308
257 255 255 254 251 249 247 247 246 246 244 241 240 241 239 240 240 240 243 245 244 249 251 252 255 257 262 268 269 272 277 282 284 284 287 291 294 298 303 306 307 309 307 305
261 256 251 249 250 249 246 244 245 244 243 243 241 242 237 240 238 238 238 242 244 246 248 250 253 257 262 268 271 273 273 276 279 282 284 287 294 301 304 305 305 307 305 308
261 256 253 249 247 246 245 243 243 242 243 242 238 239 235 238 239 237 238 239 243 246 248 250 253 258 262 264 265 264 270 274 276 279 281 287 295 304 304 301 307 306 306 307
259 253 251 249 246 243 242 240 240 240 240 240 238 236 234 233 236 235 236 237 238 242 245 248 252 257 258 261 261 263 268 270 273 278 284 290 299 302 298 304 304 303 306 305
259 253 248 247 246 243 241 238 237 238 235 232 233 233 232 231 234 236 235 236 237 239 243 247 250 253 255 254 259 264 267 268 271 278 287 294 299 298 301 303 301 300 303 305
262 257 250 247 245 242 238 236 235 234 232 229 230 228 227 226 229 231 233 234 235 237 239 243 246 247 247 253 258 262 264 267 272 279 289 294 297 297 302 301 296 298 304 303
270 262 254 247 243 239 236 231 230 229 227 225 224 221 224 224 226 227 231 232 233 234 236 238 240 240 245 249 256 258 264 267 273 282 291 293 292 297 299 296 292 297 302 303
272 266 259 249 241 237 233 228 224 223 221 221 219 220 216 220 221 223 224 228 229 231 233 233 235 240 241 249 251 255 260 266 275 284 288 288 290 298 293 294 294 298 299 301
292 272 257 245 237 235 229 223 222 219 216 209 210 214 214 216 217 220 219 222 226 224 225 228 232 236 243 248 248 253 261 268 275 281 283 285 292 290 290 293 296 297 301 302
294 283 263 243 230 229 225 223 218 214 208 204 204 207 208 211 211 216 215 217 220 221 222 225 230 236 241 246 248 253 260 268 274 276 280 287 286 282 287 295 301 302 303 301
307 279 253 241 233 220 217 215 210 206 204 198 201 202 207 207 207 210 211 212 215 218 221 223 228 235 238 242 247 254 259 266 269 272 277 280 276 284 285 302 309 308 304 299
323 296 255 230 220 216 216 209 206 200 195 196 196 198 202 202 203 207 208 208 210 214 218 222 226 231 235 239 244 251 257 259 261 268 271 267 271 278 295 307 312 309 306 304
347 331 269 222 213 209 208 203 195 195 193 194 193 198 196 197 199 203 204 203 206 211 214 218 222 227 233 237 242 245 248 250 255 252 262 256 262 288 296 311 311 309 303 299
4 357 299 240 218 209 205 198 191 187 182 186 193 194 193 194 197 201 199 198 201 208 211 215 220 225 227 233 237 240 239 247 244 245 259 250 262 285 299 308 308 305 295 287
14 18 341 247 204 205 188 186 187 182 178 182 188 191 192 192 195 196 195 194 200 205 208 212 216 219 223 229 233 235 236 239 239 243 258 253 275 281 297 309 306 298 295 282
33 32 47 238 209 185 187 180 179 180 177 183 183 190 190 191 195 193 192 195 197 202 205 209 212 218 220 224 225 229 227 232 238 245 246 252 265 288 303 310 303 294 297 280
37 30 31 69 166 178 178 180 179 178 183 181 181 188 186 190 196 188 195 193 195 198 201 205 208 214 218 219 219 217 220 226 233 240 234 242 265 289 302 306 303 296 297 281
47 41 41 49 93 176 178 177 182 181 183 182 180 184 183 188 191 191 190 191 191 192 197 201 205 209 211 211 210 209 219 225 232 241 229 246 269 283 300 305 297 287 284 274
44 41 44 46 115 159 171 177 184 184 185 182 180 184 185 186 185 190 188 187 186 191 194 198 200 204 206 207 204 209 218 223 234 239 232 246 266 288 301 301 289 277 278 255
43 50 40 60 142 164 171 178 185 187 187 185 182 182 183 183 180 186 183 181 183 188 191 192 197 200 201 198 201 210 215 221 233 236 232 243 270 295 303 295 280 271 274 232
59 62 46 70 147 161 166 174 184 187 188 185 184 184 182 180 179 182 179 179 182 185 187 190 194 195 196 196 204 209 215 220 231 227 230 249 273 298 299 288 268 264 280 236
86 65 54 103 125 146 160 167 177 184 186 185 186 185 180 179 180 180 176 178 182 184 185 188 187 189 194 203 205 207 213 217 222 220 239 257 280 293 290 278 267 257 276 257
Height
10579 10585 10593 10582 10589 10610 10613 10626 10645 10655 10651 10654 10674 10710 10720 10713 10719 10740 10744 10754 10762 10774 10774 10778 10783 10785 10790 10794 10797 10799 10802 10803 10799 10796 10791 10788 10784 10779 10773 10768 10762 10754 10747 10738
10554 10567 10555 10555 10565 10581 10589 10604 10624 10624 10630 10637 10658 10689 10698 10694 10707 10717 10731 10740 10749 10755 10762 10764 10768 10773 10780 10784 10787 10789 10792 10790 10787 10783 10779 10778 10775 10770 10765 10758 10752 10745 10736 10728
10529 10536 10521 10528 10536 10550 10562 10578 10591 10596 10598 10619 10635 10662 10676 10684 10693 10704 10717 10722 10729 10740 10747 10752 10757 10763 10767 10774 10778 10780 10780 10777 10774 10772 10771 10768 10765 10760 10755 10750 10743 10735 10726 10717
10493 10495 10497 10503 10512 10521 10537 10552 10554 10566 10576 10607 10608 10642 10648 10665 10678 10687 10698 10704 10714 10723 10730 10740 10748 10755 10759 10763 10766 10768 10766 10765 10763 10763 10762 10759 10755 10750 10746 10740 10733 10724 10716 10707
10461 10464 10465 10471 10474 10485 10505 10512 10526 10537 10557 10572 10590 10615 10644 10650 10668 10674 10678 10683 10694 10703 10715 10726 10736 10743 10747 10752 10755 10757 10755 10755 10755 10753 10751 10749 10745 10741 10735 10730 10723 10714 10705 10698
10429 10427 10430 10431 10438 10451 10468 10482 10489 10508 10526 10535 10599 10591 10626 10629 10647 10648 10656 10664 10674 10691 10702 10714 10724 10731 10736 10740 10743 10743 10743 10744 10744 10743 10741 10738 10736 10731 10725 10719 10712 10704 10696 10690
10396 10394 10399 10402 10412 10419 10434 10450 10457 10477 10496 10529 10566 10560 10613 10610 10621 10632 10641 10647 10663 10677 10688 10702 10711 10718 10724 10727 10730 10731 10733 10734 10733 10733 10731 10729 10726 10721 10715 10709 10701 10694 10688 10683
10370 10372 10374 10378 10383 10393 10406 10422 10433 10453 10480 10516 10519 10533 10587 10587 10591 10606 10617 10635 10649 10664 10677 10688 10697 10705 10711 10714 10717 10720 10723 10722 10723 10723 10721 10719 10716 10711 10705 10698 10692 10686 10681 10677
10351 10351 10356 10358 10365 10375 10382 10397 10413 10430 10451 10466 10494 10527 10544 10571 10579 10585 10601 10618 10636 10652 10666 10678 10684 10692 10696 10701 10706 10711 10711 10712 10714 10713 10712 10710 10707 10701 10695 10689 10684 10679 10675 10670
10338 10338 10341 10343 10348 10358 10366 10376 10390 10405 10424 10449 10472 10511 10534 10545 10550 10567 10580 10605 10623 10640 10656 10664 10672 10678 10682 10692 10696 10699 10700 10703 10704 10704 10704 10701 10696 10692 10687 10682 10677 10673 10669 10663
10326 10326 10329 10330 10335 10342 10349 10360 10372 10385 10404 10429 10451 10489 10501 10525 10531 10551 10573 10592 10610 10628 10643 10651 10660 10665 10675 10680 10684 10688 10691 10693 10694 10695 10694 10691 10687 10684 10679 10675 10671 10667 10662 10656
10316 10316 10317 10321 10326 10330 10337 10346 10355 10367 10386 10411 10435 10449 10481 10497 10522 10540 10558 10576 10597 10617 10629 10638 10646 10657 10664 10668 10674 10678 10680 10683 10686 10687 10684 10682 10680 10677 10672 10668 10665 10661 10656 10651
10307 10306 10307 10310 10314 10318 10324 10331 10339 10353 10369 10394 10415 10441 10470 10490 10504 10522 10546 10565 10584 10603 10614 10625 10637 10646 10651 10658 10664 10667 10670 10674 10677 10677 10676 10675 10672 10669 10665 10663 10660 10655 10650 10644
10300 10299 10301 10301 10305 10309 10315 10320 10328 10343 10359 10380 10400 10420 10444 10462 10487 10509 10538 10554 10571 10587 10600 10614 10625 10633 10641 10647 10653 10658 10661 10665 10667 10668 10668 10667 10665 10662 10660 10657 10653 10648 10643 10638
10296 10294 10295 10297 10300 10303 10305 10311 10324 10335 10350 10367 10385 10404 10428 10456 10481 10503 10523 10541 10559 10575 10590 10603 10614 10623 10631 10637 10643 10649 10653 10656 10658 10660 10661 10660 10658 10657 10654 10651 10645 10641 10636 10631
10293 10291 10291 10293 10294 10298 10304 10310 10320 10331 10342 10359 10377 10401 10426 10450 10470 10487 10511 10533 10552 10566 10579 10592 10604 10613 10620 10629 10636 10641 10645 10648 10651 10653 10655 10654 10653 10651 10648 10643 10638 10634 10629 10625
10290 10290 10291 10290 10292 10295 10299 10305 10312 10325 10340 10361 10380 10392 10415 10438 10462 10481 10506 10528 10544 10558 10571 10584 10594 10603 10612 10621 10627 10632 10637 10641 10643 10647 10649 10648 10648 10645 10641 10637 10633 10628 10624 10620
10290 10289 10290 10291 10294 10297 10302 10305 10313 10324 10342 10360 10377 10396 10416 10435 10456 10475 10499 10518 10535 10549 10563 10576 10586 10595 10607 10612 10619 10624 10631 10633 10637 10641 10643 10642 10641 10638 10636 10632 10627 10623 10620 10618
10293 10291 10291 10291 10292 10296 10299 10308 10318 10327 10339 10358 10374 10390 10410 10430 10449 10472 10491 10511 10526 10541 10556 10567 10578 10589 10597 10606 10612 10617 10624 10627 10632 10635 10637 10636 10635 10633 10631 10627 10623 10619 10616 10613
10295 10293 10292 10292 10294 10297 10302 10309 10316 10329 10343 10353 10372 10389 10409 10432 10447 10464 10489 10502 10518 10534 10548 10560 10573 10582 10592 10598 10605 10611 10617 10621 10626 10629 10630 10631 10629 10628 10626 10622 10619 10615 10612 10610
10298 10297 10295 10295 10295 10299 10303 10310 10316 10328 10340 10351 10367 10382 10406 10426 10438 10471 10479 10498 10513 10528 10541 10555 10565 10573 10584 10592 10599 10606 10611 10616 10620 10623 10625 10624 10624 10623 10621 10618 10614 10610 10608 10606
10301 10299 10297 10296 10298 10301 10304 10310 10318 10326 10337 10350 10364 10379 10400 10416 10436 10457 10477 10492 10509 10523 10535 10546 10556 10566 10575 10585 10594 10601 10606 10612 10614 10617 10620 10619 10619 10619 10617 10613 10609 10606 10605 10603
10305 10302 10300 10299 10300 10301 10305 10311 10317 10327 10337 10352 10364 10376 10395 10414 10439 10454 10472 10488 10505 10517 10530 10540 10551 10562 10571 10581 10589 10596 10602 10606 10609 10612 10614 10615 10615 10614 10612 10609 10606 10603 10602 10600
10305 10304 10302 10301 10302 10303 10305 10310 10317 10327 10336 10351 10364 10377 10393 10412 10435 10452 10471 10488 10500 10513 10524 10535 10547 10556 10566 10577 10585 10592 10598 10602 10606 10608 10610 10611 10610 10610 10607 10605 10602 10601 10599 10597
10306 10305 10304 10303 10303 10305 10308 10311 10317 10325 10337 10352 10365 10378 10394 10414 10433 10450 10469 10484 10497 10509 10520 10532 10543 10554 10565 10575 10581 10588 10594 10598 10602 10604 10607 10607 10606 10606 10603 10601 10599 10598 10596 10594
10307 10307 10306 10304 10305 10307 10309 10313 10319 10327 10340 10354 10367 10379 10397 10415 10431 10447 10467 10484 10496 10507 10518 10530 10542 10553 10564 10571 10578 10584 10589 10594 10599 10601 10603 10604 10603 10602 10601 10598 10596 10595 10593 10592